User: anonymous   Login
Location: Mentone
(34.5413°N, 85.5351°W)
Time: 07:26:50
(UTC-05:00)
Language:

AO-Echo - Orbit

View from above orbital plane
View from above orbital plane
View from above satellite
View from above satellite

Ground track
Ground track

The orbit data is extracted from the following two-line orbital elements,

1 28375U 04025K   17200.21723697 +.00000002 +00000-0 +13772-4 0  9999
2 28375 098.3589 133.0122 0082364 186.0585 173.9617 14.41845044686376
Epoch (UTC): 19 July 2017 05:12:49
Eccentricity: 0.0082364
inclination: 98.3589°
perigee height: 693 km
apogee height: 811 km
right ascension of ascending node: 133.0122°
argument of perigee: 186.0585°
revolutions per day: 14.41845044
mean anomaly at epoch: 173.9617°
orbit number at epoch: 68637

The dashed part of the orbit path shows where the satellite is in the earth's shadow,  

DLR